Location: Copeville
(33.0796°N, 96.4155°W)
Time: 19:55:42
(UTC+00:00)

NOAA 19 - Pass Details

Date: 07 April 2023
Orbit: 840 x 859 km, 99.1° (Epoch: 31 May)

Event Time Altitude Azimuth Distance (km) Brightness Sun altitude
Exits shadow 03:35:59 12° 227° (SW) 2,319 7.6 -33.0°
Maximum altitude 03:39:07 19° 265° (W) 1,925 7.5 -33.5°
Drops below altitude 10° 03:42:51 10° 309° (NW) 2,464 8.4 -34.2°
Sets 03:45:58 0° 327° (NNW) 3,401 9.3 -34.7°
